Jason Watson

Jason Watson

Statistiques 2021

  • Courses courues : -
  • Nb de victoires : -
  • Nb de places : -
  • Écart gagnant : 2
  • Réussite à la gagne : -
  • Réussite à la place : -
Musique : (20) 2p 6p 1p 3p 9p 12p 3p 6p 7p 10p 0p 4p 6p 5p 12p 2p 0p 10p
DateRangCatégorieAlloc.Dist.HippodromeChevalPoidsSpé.
29/10/20 2 Galop 7 140€ GB-CHELMSFORD Lady Morpheus 60,5 Plat
23/10/20 6 Galop 8 117€ Gb-Newbury King Of Tsavo 59,5 Plat
10/10/20 1 Galop 235 294€ Gb-Newmarket Great White Shark 53,5 Plat
09/10/20 3 Galop 105 882€ Gb-Newmarket Kipps 55 Plat
09/10/20 9 Galop 11 764€ Gb-Newmarket Your Fancy 57 Plat
08/10/20 12 Galop 6 823€ GB-CHELMSFORD French Minstrel 59,5 Plat
08/10/20 3 Galop 8 705€ GB-CHELMSFORD Creedmoor 56,5 Plat
06/10/20 6 Galop 5 859€ Gb-Lingfield Gosnay Gold 57,5 Plat
05/10/20 7 Galop 10 882€ Gb-Wolverhampton Campari 60,5 Plat
03/10/20 10 Galop 276 470€ Gb-Newmarket Final Song 57 Plat
03/10/20 0 Galop 176 470€ Gb-Newmarket Faustus 54 Plat
26/09/20 4 Galop 47 058€ Gb-Newmarket Meu Amor 59 Plat
26/09/20 6 Galop 141 176€ Gb-Newmarket Tempus 56 Plat
26/09/20 5 Galop 117 647€ Gb-Newmarket Pleasant Man 57 Plat
26/09/20 12 Galop 9 411€ Gb-Newmarket Quilted 57 Plat
24/09/20 2 Galop 35 294€ Gb-Newmarket Withhold 60 Plat
24/09/20 0 Galop 9 411€ Gb-Newmarket Keeper 57 Plat
23/09/20 10 Galop 9 454€ Gb-Goodwood Kingston Kurrajong 56 Plat
13/09/20 2 Galop 10 022€ Gb-Wolverhampton True Destiny 64,5 Plat
08/09/20 6 Galop 19 674€ Gb-Goodwood Seinesational 58 Plat
07/09/20 6 Galop 6 580€ Gb-Windsor Casa Loupi 61 Plat
05/09/20 5 Galop 40 507€ Gb-Ascot Pretty In Grey 57,5 Plat
05/09/20 5 Galop 13 887€ Gb-Ascot Rose Hip 57,5 Plat
04/09/20 8 Galop 20 831€ Gb-Ascot The Whipmaster 59,5 Plat
27/08/20 6 Galop 6 249€ Gb-Lingfield Fittleton Ferry 55,5 Plat
23/08/20 1 Galop 12 035€ Gb-Sandown Seinesational 59 Plat
22/08/20 16 Galop 294 117€ Gb-York True Self 61 Plat
21/08/20 2 Galop 117 647€ Gb-York Stratum 58,5 Plat
18/08/20 11 Galop 6 249€ Gb-Kempton Slade King 63 Plat
17/08/20 6 Galop 7 529€ Gb-Windsor Knowwhentorun 59,5 Plat
16/08/20 4 Galop 7 407€ Gb-Newbury Encourage 59,5 Plat
16/08/20 1 Galop 7 407€ Gb-Newbury Beheld 57 Plat
13/08/20 6 Galop 4 977€ Gb-Bath Zayriyan 61,5 Plat
31/07/20 13 Galop 58 823€ Gb-Goodwood Baltic Baron 55 Plat
30/07/20 4 Galop 35 294€ Gb-Goodwood Luigi Vampa 54,5 Plat
29/07/20 6 Galop 35 294€ Gb-Goodwood True Destiny 53,5 Plat
28/07/20 11 Galop 117 647€ Gb-Goodwood History Writer 58,5 Plat
28/07/20 11 Galop 35 294€ Gb-Goodwood Alternative Fact 56 Plat
27/07/20 4 Galop 5 058€ Gb-Windsor Cinnabar 58,5 Plat
26/07/20 1 Galop 5 400€ Gb-Wolverhampton Tamaris 57,6 Plat
25/07/20 1 Galop 63 652€ Gb-York Aspetar 60 Plat
25/07/20 2 Galop 6 943€ Gb-York Henrik 60,5 Plat
21/07/20 3 Galop 12 035€ Gb-Sandown Amir Kabir 53 Plat
19/07/20 3 Galop 188 454€ Gb-Newbury Soldierpoy 53,5 Plat
18/07/20 7 Galop 20 252€ Gb-Newbury Tanfantic 57 Plat
18/07/20 9 Galop 6 249€ Gb-Newbury Combine 57 Plat
18/07/20 9 Galop 7 407€ Gb-Newbury Barn Owl 59,5 Plat
17/07/20 9 Galop 6 352€ Gb-Haydock Salsa Dip 59,5 Plat
16/07/20 4 Galop 6 249€ Gb-Sandown Summer Valley 55,5 Plat
15/07/20 T Galop 4 231€ Gb-Kempton Poetic Lilly 54 Plat